Weather History for Fort Meade, MD

Change the Weather History Date:

Sunday, February 2, 2014

  Actual Average (KBWI) Record (KBWI)
Temperature  
Mean Temperature 44 °F 34 °F  
Max Temperature 60 °F 42 °F 71 °F (1967)
Min Temperature 28 °F 25 °F 1 °F (1961)
Degree Days  
Heating Degree Days 21 31  
Month to date heating degree days 62  
Since 1 July heating degree days 2838  
Cooling Degree Days 0 0  
Month to date cooling degree days 0  
Year to date cooling degree days 0  
Moisture  
Dew Point 31 °F    
Average Humidity 68    
Maximum Humidity 100    
Minimum Humidity 34    
Precipitation  
Precipitation 0.00 in 0.11 in 1.40 in (1897)
Month to date precipitation 0.21  
Year to date precipitation 3.26  
Snow  
Snow 0.00 in 0.40 in 4.40 in (1996)
Month to date snowfall 0.7  
Since 1 July snowfall 10.9  
Snow Depth -    
Sea Level Pressure  
Sea Level Pressure 30.01 in    
Wind  
Wind Speed 1 mph (ENE)    
Max Wind Speed 7 mph    
Max Gust Speed -    
Visibility 10 miles    
Events      
T = Trace of Precipitation, MM = Missing Value Source: NWS Daily Summary

Daily Weather History Graph

Daily Weather History Graph

Search for Another Location

Airport:

Trip Planner

Search our weather history database for the weather conditions in past years. The results will help you decide how hot, cold, wet, or windy it might be!

Date:

Astronomy

Feb. 02, 2014 Rise Set
Actual Time 7:12 AM EST 5:29 PM EST
Civil Twilight 6:44 AM EST 5:57 PM EST
Nautical Twilight 6:12 AM EST 6:29 PM EST
Astronomical Twilight 5:41 AM EST 7:00 PM EST
Moon 8:39 AM EST (2/2) 9:08 PM EST (2/2)
Length of Visible Light 11h 12m
Length of Day
10h 16m
Waxing Crescent, 11% of the Moon is Illuminated
Feb 2
Waxing Crescent
Feb 6
First Quarter
Feb 14
Full
Feb 22
Last Quarter
Mar 1
New

Hourly Weather History & Observations

Time (EST) Temp. Windchill Dew Point Humidity Pressure Visibility Wind Dir Wind Speed Gust Speed Precip Events Conditions
12:09 AM 33.8 °F - 32.0 °F 93% 30.02 in 10.0 mi Calm Calm - N/A   Mostly Cloudy
12:27 AM 33.8 °F - 30.2 °F 87% 30.02 in 10.0 mi Calm Calm - N/A   Scattered Clouds
12:48 AM 32.0 °F - 30.2 °F 93% 30.01 in 10.0 mi Calm Calm - N/A   Clear
1:09 AM 32.0 °F - 30.2 °F 93% 30.01 in 10.0 mi Calm Calm - N/A   Clear
1:27 AM 32.0 °F - 30.2 °F 93% 30.00 in 10.0 mi Calm Calm - N/A   Clear
1:48 AM 32.0 °F - 30.2 °F 93% 29.99 in 10.0 mi Calm Calm - N/A   Clear
2:09 AM 32.0 °F - 30.2 °F 93% 29.99 in 10.0 mi Calm Calm - N/A   Clear
2:27 AM 32.0 °F - 28.4 °F 87% 29.99 in 10.0 mi Calm Calm - N/A   Clear
2:48 AM 30.2 °F - 28.4 °F 93% 29.99 in 10.0 mi Calm Calm - N/A   Clear
3:09 AM 30.2 °F - 28.4 °F 93% 29.98 in 10.0 mi Calm Calm - N/A   Clear
3:27 AM 30.2 °F - 28.4 °F 93% 29.98 in 10.0 mi Calm Calm - N/A   Clear
3:48 AM 30.2 °F - 28.4 °F 93% 29.97 in 10.0 mi Calm Calm - N/A   Clear
4:09 AM 30.2 °F - 28.4 °F 93% 29.97 in 10.0 mi Calm Calm - N/A   Clear
4:27 AM 28.4 °F - 26.6 °F 93% 29.97 in 10.0 mi Calm Calm - N/A   Clear
4:48 AM 30.2 °F - 28.4 °F 93% 29.97 in 10.0 mi Calm Calm - N/A   Clear
5:09 AM 30.2 °F - 28.4 °F 93% 29.97 in 10.0 mi Calm Calm - N/A   Clear
5:27 AM 28.4 °F - 26.6 °F 93% 29.98 in 10.0 mi Calm Calm - N/A   Clear
5:48 AM 28.4 °F - 26.6 °F 93% 29.97 in 10.0 mi Calm Calm - N/A   Clear
6:09 AM 28.4 °F - 28.4 °F 100% 29.98 in 10.0 mi Calm Calm - N/A   Clear
6:30 AM 28.4 °F - 26.6 °F 93% 29.98 in 10.0 mi Calm Calm - N/A   Clear
6:48 AM 28.4 °F - 26.6 °F 93% 29.98 in 10.0 mi Calm Calm - N/A   Clear
7:09 AM 28.4 °F - 28.4 °F 100% 29.98 in 7.0 mi Calm Calm - N/A   Clear
7:30 AM 28.4 °F - 26.6 °F 93% 30.00 in 10.0 mi Calm Calm - N/A   Clear
7:48 AM 28.4 °F - 28.4 °F 100% 30.00 in 10.0 mi Calm Calm - N/A   Clear
8:09 AM 30.2 °F - 28.4 °F 93% 30.00 in 10.0 mi Calm Calm - N/A   Clear
8:30 AM 32.0 °F - 30.2 °F 93% 30.00 in 10.0 mi Calm Calm - N/A   Clear
8:48 AM 32.0 °F - 30.2 °F 93% 30.02 in 10.0 mi Calm Calm - N/A   Clear
9:09 AM 33.8 °F - 32.0 °F 93% 30.02 in 10.0 mi Calm Calm - N/A   Clear
9:30 AM 37.4 °F - 32.0 °F 81% 30.02 in 10.0 mi Calm Calm - N/A   Clear
9:48 AM 41.0 °F - 32.0 °F 70% 30.03 in 10.0 mi Calm Calm - N/A   Clear
10:09 AM 46.4 °F 45.2 °F 30.2 °F 53% 30.03 in 10.0 mi West 3.5 mph - N/A   Clear
10:30 AM 48.2 °F - 30.2 °F 50% 30.03 in 10.0 mi WSW 3.5 mph - N/A   Clear
10:48 AM 50.0 °F - 28.4 °F 43% 30.03 in 10.0 mi Calm Calm - N/A   Clear
11:09 AM 51.8 °F - 28.4 °F 41% 30.03 in 10.0 mi Calm Calm - N/A   Clear
11:30 AM 53.6 °F - 30.2 °F 41% 30.03 in 10.0 mi West 4.6 mph - N/A   Mostly Cloudy
11:48 AM 53.6 °F - 28.4 °F 38% 30.02 in 10.0 mi Calm Calm - N/A   Overcast
12:09 PM 53.6 °F - 30.2 °F 41% 30.00 in 10.0 mi Calm Calm - N/A   Overcast
12:30 PM 55.4 °F - 32.0 °F 41% 30.00 in 10.0 mi Calm Calm - N/A   Overcast
12:48 PM 57.2 °F - 32.0 °F 38% 30.00 in 10.0 mi Calm Calm - N/A   Overcast
1:06 PM 55.4 °F - 32.0 °F 41% 29.99 in 10.0 mi Calm Calm - N/A   Overcast
1:30 PM 57.2 °F - 32.0 °F 38% 29.98 in 10.0 mi Calm Calm - N/A   Overcast
1:48 PM 57.2 °F - 32.0 °F 38% 29.98 in 10.0 mi Calm Calm - N/A   Overcast
2:09 PM 57.2 °F - 32.0 °F 38% 29.97 in 10.0 mi Calm Calm - N/A   Overcast
2:30 PM 59.0 °F - 33.8 °F 39% 29.97 in 10.0 mi Calm Calm - N/A   Overcast
2:51 PM 60.8 °F - 33.8 °F 36% 29.95 in 10.0 mi South 4.6 mph - N/A   Overcast
3:09 PM 59.0 °F - 32.0 °F 36% 29.95 in 10.0 mi SE 4.6 mph - N/A   Overcast
3:30 PM 60.8 °F - 32.0 °F 34% 29.95 in 10.0 mi SE 3.5 mph - N/A   Mostly Cloudy
3:51 PM 59.0 °F - 32.0 °F 36% 29.95 in 10.0 mi South 4.6 mph - N/A   Scattered Clouds
4:09 PM 59.0 °F - 32.0 °F 36% 29.96 in 10.0 mi ESE 6.9 mph - N/A   Clear
4:30 PM 55.4 °F - 33.8 °F 44% 29.98 in 10.0 mi Calm Calm - N/A   Clear
4:51 PM 53.6 °F - 33.8 °F 47% 30.00 in 10.0 mi East 4.6 mph - N/A   Clear
5:09 PM 50.0 °F - 33.8 °F 54% 30.00 in 10.0 mi ENE 4.6 mph - N/A   Clear
5:30 PM 50.0 °F - 32.0 °F 50% 30.01 in 10.0 mi ENE 5.8 mph - N/A   Scattered Clouds
5:51 PM 46.4 °F 43.5 °F 32.0 °F 57% 30.00 in 10.0 mi East 5.8 mph - N/A   Mostly Cloudy
6:09 PM 46.4 °F - 32.0 °F 57% 30.01 in 10.0 mi Calm Calm - N/A   Mostly Cloudy
6:30 PM 46.4 °F - 32.0 °F 57% 30.03 in 10.0 mi Calm Calm - N/A   Mostly Cloudy
6:51 PM 44.6 °F - 32.0 °F 61% 30.02 in 10.0 mi Calm Calm - N/A   Overcast
7:09 PM 42.8 °F 41.1 °F 32.0 °F 66% 30.02 in 10.0 mi East 3.5 mph - N/A   Scattered Clouds
7:30 PM 41.0 °F 39.0 °F 32.0 °F 70% 30.04 in 10.0 mi North 3.5 mph - N/A   Scattered Clouds
7:51 PM 42.8 °F - 32.0 °F 66% 30.05 in 10.0 mi Calm Calm - N/A   Overcast
8:09 PM 44.6 °F 43.1 °F 32.0 °F 61% 30.06 in 10.0 mi NNE 3.5 mph - N/A   Overcast
8:30 PM 44.6 °F - 32.0 °F 61% 30.06 in 10.0 mi Calm Calm - N/A   Overcast
8:51 PM 44.6 °F - 32.0 °F 61% 30.07 in 10.0 mi Calm Calm - N/A   Overcast
9:09 PM 44.6 °F - 32.0 °F 61% 30.07 in 10.0 mi Calm Calm - N/A   Overcast
9:30 PM 42.8 °F - 32.0 °F 66% 30.07 in 10.0 mi Calm Calm - N/A   Overcast
9:51 PM 42.8 °F 40.1 °F 32.0 °F 66% 30.06 in 10.0 mi East 4.6 mph - N/A   Overcast
10:09 PM 44.6 °F 42.2 °F 32.0 °F 61% 30.08 in 10.0 mi North 4.6 mph - N/A   Overcast
10:30 PM 46.4 °F 42.9 °F 32.0 °F 57% 30.09 in 10.0 mi NNE 6.9 mph - N/A   Overcast
10:51 PM 46.4 °F 45.2 °F 35.6 °F 66% 30.08 in 10.0 mi North 3.5 mph - N/A   Overcast
11:09 PM 46.4 °F 42.9 °F 35.6 °F 66% 30.07 in 10.0 mi North 6.9 mph - N/A   Overcast
11:30 PM 46.4 °F 44.3 °F 37.4 °F 71% 30.09 in 10.0 mi North 4.6 mph - N/A   Overcast
11:51 PM 44.6 °F 40.7 °F 37.4 °F 76% 30.08 in 10.0 mi NNE 6.9 mph - N/A   Overcast